[[{"header":{"parameterUnit":"m.s-1","parameterCategory":1,"la1":30.2991,"la2":30.254,"lo1":-89.0895,"lo2":-89.0444,"dy":0.0017,"dx":0.0017,"nx":28,"ny":28,"refTime":"2024-04-12T21:00:00:Z","depth":0,"parameterNumber":2,"parameterNumberName":"U-component_of_WINDS"},"data":[0,0,0,0,0,0,0,0,0,0,0,0,0,0,0,0,0,0,0,0,0,0,0,0,0,0,0,0,0,0,0,0,0,0,0,0,0,0,0,0,0,0,0,0,0,0,0,0,0,0,0,0,0,0,0,0,0,0,-0.6746,-0.6746,0,-0.6765,-0.6765,-0.6765,-0.6747,-0.6747,-0.6746,-0.6745,-0.6766,-0.6767,-0.6768,0,0,0,0,0,0,0,0,0,0,0,0,0,-0.6696,-0.6697,-0.6746,-0.6746,-0.6746,-0.6765,-0.6765,-0.6765,-0.6748,-0.6747,-0.6746,-0.6745,-0.6766,-0.6767,-0.6769,0,0,0,0,0,0,0,0,0,0,0,0,0,-0.6717,-0.6698,-0.6746,-0.674,-0.6739,-0.6765,-0.6765,-0.6765,-0.6748,-0.6747,-0.6746,-0.6745,-0.6765,-0.6767,-0.6769,-0.6801,0,0,-0.6774,-0.6775,0,0,0,0,0,0,0,0,-0.6716,-0.6719,-0.674,-0.674,-0.674,-0.6752,-0.6755,-0.6777,-0.6748,-0.6745,-0.6745,-0.6744,-0.6763,-0.6764,-0.677,-0.6802,-0.6803,-0.6775,-0.6776,-0.6776,-0.6777,0,0,0,0,0,0,0,-0.6714,-0.6718,-0.6753,-0.6741,-0.674,-0.6737,-0.6738,-0.6759,-0.6759,-0.6745,-0.6743,-0.6746,-0.6762,-0.6769,-0.6771,-0.6804,-0.6774,-0.6776,-0.6777,-0.6778,-0.6865,-0.6866,0,0,0,0,0,0,-0.6713,-0.6717,-0.6753,-0.6754,-0.6725,-0.6738,-0.674,-0.6749,-0.6759,-0.6759,-0.6747,-0.6745,-0.6766,-0.6769,-0.6771,-0.6811,-0.6776,-0.6778,-0.6779,-0.6864,-0.6865,-0.6867,0,0,0,0,0,0,-0.6712,-0.6717,-0.6752,-0.6735,-0.6739,-0.674,-0.6751,-0.675,-0.6757,-0.6761,-0.6761,-0.6753,-0.6765,-0.6769,-0.6794,-0.6812,-0.6779,-0.6781,-0.6862,-0.6864,-0.6866,-0.6891,0,0,0,0,0,0,-0.6711,-0.6716,-0.6728,-0.6735,-0.674,-0.6774,-0.6752,-0.6752,-0.676,-0.6758,-0.6767,-0.6767,-0.6765,-0.6792,-0.6796,-0.6814,-0.6782,-0.6861,-0.6863,-0.6865,-0.6888,-0.6893,-0.6897,0,0,0,0,0,-0.6709,-0.6734,-0.6729,-0.6733,-0.6755,-0.6775,-0.6778,-0.6774,-0.6761,-0.6774,-0.6776,-0.6767,-0.6809,-0.6795,-0.6799,-0.6818,-0.686,-0.6863,-0.6865,-0.6886,-0.6892,-0.6897,0,0,0,0,0,0,-0.6729,-0.6735,-0.6729,-0.6757,-0.6766,-0.6772,-0.6787,-0.678,-0.6792,-0.679,-0.6785,-0.6788,-0.6815,-0.6819,-0.6802,-0.6851,-0.6833,-0.6836,-0.6847,-0.6853,-0.6857,-0.6855,-0.6784,0,0,0,0,0,-0.6737,-0.6752,-0.6757,-0.6781,-0.6785,-0.6786,-0.6794,-0.6791,-0.68,-0.6803,-0.6807,-0.6817,-0.6832,-0.6843,-0.6857,-0.6889,-0.6891,-0.6904,-0.6909,-0.6912,-0.6916,-0.6934,-0.694,-0.6876,-0.6876,-0.6876,0,0,-0.6753,-0.6758,-0.6768,-0.6785,-0.6791,-0.6808,-0.6789,-0.6807,-0.6819,-0.6806,-0.683,-0.6834,-0.6845,-0.6874,-0.6887,-0.6878,-0.6934,-0.6916,-0.6919,-0.692,-0.6938,-0.6944,-0.6949,-0.6878,-0.6877,-0.6877,0,0,-0.6791,-0.6796,-0.6817,-0.6824,-0.6833,-0.6833,-0.6839,-0.6846,-0.6848,-0.6873,-0.6863,-0.6879,-0.6905,-0.6913,-0.6921,-0.6963,-0.6956,-0.6968,-0.6992,-0.701,-0.7015,-0.7019,-0.7035,-0.7041,-0.6972,-0.6972,-0.6972,0,-0.6809,-0.6833,-0.6829,-0.6848,-0.6856,-0.6845,-0.6867,-0.6874,-0.6888,-0.6895,-0.6885,-0.6919,-0.6925,-0.6956,-0.6967,-0.6973,-0.698,-0.6967,-0.7014,-0.7019,-0.7023,-0.7038,-0.7044,-0.6973,-0.6973,-0.6973,-0.6973,0,-0.6856,-0.6874,-0.689,-0.6904,-0.6914,-0.6934,-0.6934,-0.6945,-0.6941,-0.6943,-0.6969,-0.6976,-0.6992,-0.6999,-0.6996,-0.7031,-0.7025,-0.7015,-0.6997,-0.7031,-0.7045,-0.7051,-0.6976,-0.6975,-0.6975,-0.6974,0,0,-0.6906,-0.6918,-0.6924,-0.6931,-0.6942,-0.6955,-0.6976,-0.6992,-0.7002,-0.7012,-0.703,-0.7054,-0.7045,-0.7053,-0.7051,-0.7066,-0.7101,-0.7054,-0.7055,-0.7063,-0.7142,-0.715,-0.7157,-0.7096,-0.7097,-0.7098,-0.7141,0,-0.6945,-0.698,-0.6978,-0.7012,-0.7028,-0.7018,-0.7037,-0.7046,-0.7048,-0.7063,-0.7066,-0.7083,-0.7069,-0.7074,-0.709,-0.7094,-0.7117,-0.709,-0.7114,-0.7115,-0.7112,-0.7164,-0.7172,-0.7213,-0.7147,-0.7148,-0.7148,0,-0.6994,-0.7007,-0.7042,-0.7052,-0.7058,-0.7075,-0.709,-0.7104,-0.7115,-0.7115,-0.7126,-0.7121,-0.7143,-0.7125,-0.7156,-0.7138,-0.7147,-0.7151,-0.7152,-0.7155,-0.7134,-0.7168,-0.7225,-0.7232,-0.7157,-0.7156,-0.7156,0,-0.7028,-0.7054,-0.7079,-0.7085,-0.7096,-0.7108,-0.7113,-0.7123,-0.7133,-0.7146,-0.7153,-0.7169,-0.7178,-0.7191,-0.7191,-0.7177,-0.7223,-0.7204,-0.7225,-0.7225,-0.7235,-0.7235,-0.7295,-0.7241,-0.7241,-0.724,-0.724,0,-0.7072,-0.7094,-0.7094,-0.711,-0.7135,-0.7132,-0.7158,-0.7162,-0.7171,-0.7187,-0.718,-0.7196,-0.7195,-0.7212,-0.7212,-0.7238,-0.7242,-0.7244,-0.7244,-0.7245,-0.7245,-0.7251,-0.7249,-0.7242,-0.7242,-0.7241,-0.7241,0,-0.7114,-0.7115,-0.7141,-0.715,-0.7153,-0.7171,-0.7179,-0.7194,-0.7197,-0.7218,-0.7223,-0.7227,-0.7246,-0.7248,-0.727,-0.727,-0.7303,-0.7299,-0.7299,-0.7298,-0.732,-0.7318,-0.7387,-0.7396,-0.7335,-0.7336,-0.7336,0,-0.7142,-0.7159,-0.717,-0.718,-0.7186,-0.7203,-0.7214,-0.7212,-0.7224,-0.7238,-0.7252,-0.727,-0.7285,-0.7317,-0.7322,-0.734,-0.7337,-0.736,-0.7339,-0.734,-0.7338,-0.7337,-0.734,-0.7364,-0.7365,-0.7365,-0.7366,0,-0.7192,-0.7192,-0.7206,-0.7222,-0.7235,-0.7247,-0.7259,-0.7268,-0.7268,-0.7281,-0.7301,-0.7313,-0.7336,-0.7355,-0.7372,-0.7379,-0.7373,-0.7372,-0.7378,-0.7379,-0.7379,-0.738,-0.731,-0.737,-0.737,-0.737,-0.7369,-0.7369,-0.7228,-0.7243,-0.7253,-0.7271,-0.7279,-0.7291,-0.7306,-0.731,-0.7326,-0.7345,-0.7343,-0.7365,-0.7377,-0.74,-0.7408,-0.7426,-0.7418,-0.7426,-0.7429,-0.7431,-0.7433,-0.7376,-0.7429,-0.7429,-0.7428,-0.7428,-0.7428,0,-0.7278,-0.7284,-0.73,-0.7317,-0.7331,-0.7324,-0.7337,-0.7349,-0.7369,-0.738,-0.7395,-0.7418,-0.7437,-0.7444,-0.7463,-0.7476,-0.7474,-0.7481,-0.748,-0.7482,-0.7439,-0.7432,-0.7483,-0.7483,-0.7482,-0.7482,-0.7482,-0.7482,-0.7306,-0.7331,-0.7333,-0.7363,-0.737,-0.7391,-0.7399,-0.741,-0.7419,-0.7445,-0.7461,-0.7465,-0.7475,-0.7495,-0.7512,-0.7514,-0.7522,-0.753,-0.7531,-0.749,-0.7485,-0.748,-0.7474,-0.7532,-0.7532,-0.7573,-0.7573,-0.7574]},{"header":{"parameterUnit":"m.s-1","parameterCategory":1,"la1":30.2991,"la2":30.254,"lo1":-89.0895,"lo2":-89.0444,"dy":0.0017,"dx":0.0017,"nx":28,"ny":28,"refTime":"2024-04-12T21:00:00:Z","depth":0,"parameterNumber":3,"parameterNumberName":"V-component_of_WINDS"},"data":[0,0,0,0,0,0,0,0,0,0,0,0,0,0,0,0,0,0,0,0,0,0,0,0,0,0,0,0,0,0,0,0,0,0,0,0,0,0,0,0,0,0,0,0,0,0,0,0,0,0,0,0,0,0,0,0,0,0,2.9268,2.9268,0,2.9244,2.9243,2.9243,2.9227,2.9227,2.9227,2.9226,2.9198,2.9198,2.9197,0,0,0,0,0,0,0,0,0,0,0,0,0,2.9299,2.9299,2.9268,2.9268,2.9268,2.9244,2.9243,2.9243,2.9227,2.9227,2.9227,2.9226,2.9198,2.9198,2.9197,0,0,0,0,0,0,0,0,0,0,0,0,0,2.9281,2.9299,2.9268,2.9257,2.9256,2.9244,2.9243,2.9243,2.9227,2.9227,2.9226,2.9226,2.9199,2.9198,2.9197,2.9194,0,0,2.9194,2.9193,0,0,0,0,0,0,0,0,2.9282,2.928,2.9259,2.9258,2.9256,2.9238,2.9244,2.9226,2.9227,2.9238,2.9226,2.9226,2.9211,2.9209,2.9205,2.9192,2.9191,2.9194,2.9193,2.9193,2.9192,0,0,0,0,0,0,0,2.9284,2.9281,2.9258,2.9259,2.9257,2.9252,2.9249,2.924,2.9226,2.9237,2.9235,2.9233,2.9211,2.9206,2.9204,2.9191,2.9194,2.9193,2.9192,2.9192,2.9174,2.9174,0,0,0,0,0,0,2.9287,2.9282,2.9259,2.9258,2.9269,2.9252,2.9249,2.9244,2.9226,2.9223,2.9233,2.9232,2.9208,2.9205,2.9203,2.9198,2.9193,2.9192,2.9191,2.9174,2.9174,2.9174,0,0,0,0,0,0,2.9288,2.9285,2.926,2.927,2.9266,2.9251,2.9246,2.9244,2.9239,2.9223,2.922,2.9231,2.9207,2.9204,2.9196,2.9197,2.9191,2.919,2.9174,2.9174,2.9174,2.9189,0,0,0,0,0,0,2.9289,2.9285,2.9285,2.927,2.9266,2.9255,2.9246,2.9243,2.9238,2.9236,2.922,2.9218,2.9207,2.9198,2.9195,2.9196,2.919,2.9174,2.9174,2.9174,2.9188,2.9189,2.919,0,0,0,0,0,2.929,2.9289,2.9285,2.9282,2.9265,2.9255,2.9252,2.9241,2.9238,2.9236,2.9226,2.9218,2.9198,2.9197,2.9194,2.9194,2.9173,2.9174,2.9174,2.9188,2.9189,2.919,0,0,0,0,0,0,2.9303,2.9287,2.9282,2.9276,2.9267,2.9252,2.925,2.9243,2.9234,2.9233,2.9219,2.9215,2.9209,2.92,2.92,2.919,2.9184,2.9184,2.9196,2.9197,2.9198,2.92,2.9189,0,0,0,0,0,2.9306,2.93,2.9286,2.9282,2.9278,2.9265,2.926,2.9253,2.9242,2.9238,2.9227,2.9216,2.9207,2.9202,2.9193,2.9187,2.9183,2.9185,2.9187,2.9188,2.9187,2.9184,2.9185,2.9175,2.9175,2.9175,0,0,2.9311,2.9301,2.9298,2.9285,2.9277,2.927,2.9262,2.9255,2.925,2.9236,2.9228,2.922,2.9207,2.92,2.9197,2.9193,2.9189,2.9188,2.9189,2.9188,2.9184,2.9185,2.9186,2.9175,2.9175,2.9175,0,0,2.9316,2.9308,2.9305,2.9297,2.9286,2.9277,2.9276,2.9262,2.9257,2.9248,2.9238,2.9231,2.9216,2.9208,2.9202,2.9205,2.9197,2.9202,2.9208,2.9205,2.9205,2.9206,2.9207,2.9208,2.9202,2.9202,2.9202,0,2.9323,2.9314,2.9304,2.9298,2.9292,2.9281,2.9277,2.927,2.9255,2.9251,2.9248,2.923,2.922,2.9211,2.9212,2.9207,2.9205,2.9203,2.9206,2.9207,2.9207,2.9208,2.9209,2.9202,2.9202,2.9202,2.9202,0,2.9324,2.9317,2.9316,2.9304,2.9298,2.9293,2.9281,2.9276,2.9269,2.9261,2.9252,2.9241,2.9229,2.9227,2.9219,2.9217,2.9215,2.9209,2.9203,2.9209,2.921,2.921,2.9204,2.9203,2.9203,2.9203,0,0,2.9337,2.9319,2.9319,2.9313,2.93,2.9294,2.9289,2.9279,2.9275,2.9265,2.926,2.9248,2.9243,2.9236,2.9227,2.9224,2.9228,2.9219,2.9218,2.9221,2.9224,2.9229,2.9229,2.9222,2.9222,2.9222,2.9225,0,2.934,2.9331,2.9321,2.9315,2.9309,2.9298,2.9293,2.9284,2.9276,2.927,2.926,2.9252,2.9246,2.9242,2.9238,2.9228,2.9228,2.9228,2.9217,2.9217,2.9221,2.9229,2.9234,2.9237,2.9225,2.9225,2.9225,0,2.9343,2.9335,2.9329,2.9316,2.9314,2.931,2.93,2.9294,2.9283,2.9277,2.927,2.9261,2.9254,2.9249,2.9239,2.9239,2.9234,2.9228,2.9228,2.9227,2.9221,2.9228,2.9238,2.9238,2.9226,2.9225,2.9225,0,2.9353,2.9341,2.9336,2.9331,2.9317,2.9314,2.9308,2.9297,2.9292,2.9283,2.9279,2.9269,2.9263,2.9255,2.9244,2.9241,2.9235,2.9229,2.923,2.923,2.9229,2.9229,2.9238,2.9226,2.9226,2.9226,2.9226,0,2.9358,2.9355,2.934,2.9337,2.9333,2.9321,2.9317,2.931,2.93,2.9295,2.9284,2.9279,2.9265,2.9258,2.9248,2.9242,2.9239,2.9234,2.9231,2.9235,2.9236,2.9231,2.9231,2.9226,2.9226,2.9226,2.9226,0,2.9369,2.9359,2.9353,2.934,2.9336,2.9334,2.9322,2.9318,2.931,2.9303,2.9301,2.9288,2.9279,2.9267,2.9254,2.9248,2.9242,2.9238,2.9246,2.9245,2.9246,2.9247,2.9253,2.9253,2.9241,2.9241,2.9241,0,2.9373,2.937,2.9357,2.9353,2.9348,2.9341,2.9336,2.9325,2.932,2.9308,2.9305,2.9296,2.9288,2.9274,2.9263,2.9253,2.9249,2.9252,2.9247,2.9251,2.9249,2.925,2.9249,2.9253,2.9253,2.9253,2.9253,0,2.9381,2.9376,2.937,2.9362,2.9356,2.9349,2.9341,2.9338,2.9325,2.932,2.9312,2.9305,2.9293,2.9284,2.9273,2.9265,2.9257,2.9255,2.9255,2.9258,2.9263,2.9261,2.9249,2.9255,2.9255,2.9255,2.9255,2.9254,2.9388,2.9386,2.9376,2.9369,2.9363,2.9356,2.9352,2.9343,2.9336,2.9326,2.932,2.9312,2.9301,2.9285,2.9278,2.9271,2.9268,2.9267,2.9267,2.9267,2.9268,2.9264,2.9269,2.9269,2.9269,2.9269,2.9268,0,2.9396,2.939,2.9384,2.9374,2.9368,2.9362,2.9353,2.9349,2.9342,2.9333,2.9326,2.9316,2.9308,2.9296,2.9286,2.9283,2.9279,2.928,2.928,2.9279,2.9272,2.9273,2.9284,2.9284,2.9284,2.9284,2.9284,2.9284,2.9399,2.9394,2.9389,2.938,2.9374,2.9367,2.9362,2.9356,2.9349,2.9339,2.9332,2.9325,2.9314,2.9304,2.9295,2.9292,2.9289,2.9292,2.9287,2.9281,2.9279,2.9278,2.9279,2.9291,2.9291,2.9295,2.9295,2.9295]}]]